Location: Ostrava
(49.8330°N, 18.2830°E)
Time: 13:02:48
(UTC+02:00)

Daily predictions for brighter satellites

Satellite Brightness Start Highest point End
(mag) Time Altitude Azimuth Time Altitude Azimuth Time Altitude Azimuth
MetOp-B 4.5 20:59:46 10° SE 21:04:56 53° ENE 21:10:09 10° N
ISS -2.9 21:02:15 10° SW 21:05:20 40° SSE 21:08:26 10° E
Nadezhda 3 Rocket 4.2 21:02:38 10° N 21:09:02 83° W 21:15:24 10° S
DNEPR-1 R/B 4.4 21:07:58 10° NW 21:13:31 58° WSW 21:18:05 10° SSE
Cosmos 1812 4.4 21:13:06 10° NNE 21:16:02 20° ENE 21:18:56 10° ESE
BREEZE-M DEB (TANK) 4.4 21:00:44 10° WNW 21:17:46 57° SW 21:22:10 10° SE
SPOT 1/Viking Rocket 4.0 21:13:24 10° SE 21:18:23 49° ENE 21:23:25 10° N
Cosmos 1850 Rocket 4.2 21:16:31 10° NNW 21:21:52 83° WSW 21:27:13 10° SSE
SL-8 R/B 3.7 21:18:35 10° W 21:23:25 76° S 21:28:14 10° E
NOSS 5 (C) 4.2 21:20:40 10° SW 21:23:53 86° NW 21:27:03 10° NE
Cosmos 1727 Rocket 4.5 21:19:33 10° N 21:25:28 45° ENE 21:31:23 10° SE
Okean 2 Rocket 3.1 21:21:35 10° S 21:25:57 65° E 21:30:19 10° NNE
ATLAS 2AS CENTAUR R/B 4.4 21:19:30 10° NW 21:26:52 35° NNE 21:34:07 10° E
Cosmos 1184 Rocket 2.8 21:23:50 10° S 21:27:10 90° SSW 21:30:33 10° NNE
ARGOS 3.5 21:23:20 10° SE 21:28:31 53° ENE 21:33:43 10° N
Nimbus 7 Rocket 4.4 21:25:10 10° NNE 21:31:07 71° ESE 21:37:06 10° S
Cosmos 1782 Rocket 3.6 21:27:07 10° S 21:31:36 88° E 21:36:06 10° N
Cosmos 2084 3.4 21:28:18 10° SW 21:32:08 76° NW 21:36:00 10° NE
Gbstr 26 Del rocket 3.3 21:27:20 10° WNW 21:32:56 82° SSW 21:37:16 11° ESE
NOSS 3-1 (C) 4.3 21:28:28 10° NW 21:35:37 59° NE 21:43:28 10° ESE
Cosmos 1975 Rocket 3.8 21:37:19 10° NNW 21:41:32 52° W 21:45:45 10° S
Cosmos 1242 Rocket 3.4 21:39:44 10° NNW 21:43:19 50° W 21:46:54 10° S
Intercosmos 25 2.8 21:40:43 10° S 21:43:58 72° E 21:47:14 10° NNE
Cosmos 2341 Rocket 4.3 21:38:52 10° SSW 21:45:09 75° WNW 21:51:25 10° N
SL-08 RB Rocket 3.9 21:43:03 12° SSE 21:47:11 60° ENE 21:51:48 10° N
SL-8 Rocket 4.0 21:42:56 10° S 21:49:11 76° E 21:55:24 10° NNE
MetOp-A 4.5 21:46:42 10° S 21:52:01 67° WSW 21:57:23 10° NNW
Lacrosse 5 rocket 2.6 21:52:21 17° SE 21:52:55 17° SE 21:55:28 10° E
Cosmos 1833 Rocket 2.8 21:47:39 10° NNW 21:53:18 77° WSW 21:58:17 13° SSE
Cosmos 1536 Rocket 3.6 21:50:02 10° N 21:54:32 74° E 21:58:22 14° SSE
YAOGAN 6 3.0 21:52:53 10° S 21:56:21 58° W 21:59:52 10° NNW
Landsat 7 4.1 21:52:46 15° SE 21:56:33 54° ENE 22:01:12 10° N
Cosmos 1408 4.4 21:56:27 10° SW 21:59:46 32° WNW 22:03:05 10° N
Cosmos 1110 Rocket 4.5 21:55:21 10° S 22:00:11 40° ESE 22:05:03 10° NE
Cosmos 1844 Rocket 4.5 21:56:01 10° WSW 22:01:11 35° NW 22:06:21 10° NNE
Envisat 4.4 21:56:52 10° SSW 22:01:29 35° W 22:06:08 10° NNW
Cosmos 2278 Rocket 3.0 21:59:32 10° SW 22:05:06 57° NW 22:10:44 10° NNE
DELTA 2 DEB (DPAF) 4.3 22:03:18 18° SSE 22:06:35 63° ENE 22:11:01 10° N
IGS 5A 4.1 22:06:38 19° SE 22:09:13 43° ENE 22:13:11 10° N
Terra 2.1 22:08:59 19° SE 22:12:14 54° ENE 22:16:54 10° N
CZ-4C R/B 3.4 22:12:50 21° SSE 22:15:30 73° ENE 22:19:45 10° N
Meteor 1-25 Rocket 4.3 22:09:43 10° S 22:15:30 69° E 22:21:17 10° NNE
Cosmos 864 Rocket 4.4 22:12:13 10° S 22:18:22 85° E 22:24:35 10° N
APEX 4.4 22:15:30 10° SW 22:19:51 62° NW 22:25:37 10° NNE
BREEZE-M DEB 3.9 22:16:29 10° WSW 22:20:15 78° S 22:21:59 20° E
USA 245 4.3 22:17:04 12° S 22:20:17 45° W 22:24:46 10° NNW
Cosmos 2082 Rocket 3.2 22:15:12 10° NW 22:20:29 40° WSW 22:25:23 12° S
SAR-Lupe-2 4.4 22:20:26 23° ESE 22:22:02 36° ENE 22:25:21 10° N
Cosmos 1025 Rocket 4.1 22:18:17 10° N 22:22:17 32° ENE 22:24:25 21° ESE
Cosmos 1400 Rocket 4.3 22:21:40 20° ESE 22:22:47 22° E 22:26:02 10° NE
CZ-4B R/B 3.4 22:18:17 10° NNE 22:23:16 89° WNW 22:28:06 10° SSW
H-2A R/B 4.4 22:21:04 10° SW 22:24:02 18° W 22:26:59 10° NW
Cosmos 1486 Rocket 4.0 22:19:08 10° NNW 22:24:31 83° ENE 22:28:00 22° SSE
Cosmos 1536 4.3 22:26:24 19° ESE 22:27:16 21° E 22:30:15 10° NE
Cosmos 2366 rocket 4.2 22:24:58 10° SSW 22:31:17 76° WNW 22:37:40 10° N
Cosmos 2151 Rocket 4.1 22:28:13 10° SSW 22:32:42 60° WNW 22:37:12 10° N
Spot 4 4.0 22:30:00 24° SE 22:32:52 64° ENE 22:37:41 10° N
Meteor 2-4 Rocket 4.3 22:29:46 10° N 22:34:57 42° ENE 22:38:00 23° SE
Cosmos 1300 Rocket 3.5 22:36:38 22° S 22:39:25 73° E 22:43:52 10° NNE
ISS -3.1 22:38:26 10° W 22:41:41 70° N 22:44:57 10° ENE
H-2A R/B 2.2 22:38:16 21° S 22:41:55 76° WSW 22:47:11 10° NNW
Cosmos 2297 4.5 22:37:57 10° SW 22:43:34 55° NW 22:49:14 10° NNE
Lacrosse 5 2.3 22:40:03 10° SSW 22:44:46 39° SE 22:49:29 10° ENE
Okean 1 3.8 22:41:21 10° NNW 22:45:21 57° W 22:47:42 23° SSW
Okean 1 Rocket 3.0 22:45:11 25° S 22:47:46 77° E 22:52:14 10° NNE
Meteor 1-13 Rocket 4.4 22:44:19 10° NNW 22:50:18 87° W 22:54:01 25° S
Cosmos 1812 3.8 22:48:28 10° NNW 22:52:06 39° W 22:54:24 19° SSW
Cosmos 1302 Rocket 4.0 22:51:35 23° S 22:54:46 61° ESE 23:00:01 10° NNE
Cosmos 1602 3.9 22:55:31 39° SSE 22:56:41 57° E 23:00:33 10° NNE
NOSS 3-1 (A) 4.0 22:50:44 10° NW 22:58:09 78° SW 23:03:15 25° SSE
Okean 1-7 Rocket 4.0 22:58:25 10° NNW 23:02:50 56° W 23:05:08 26° SSW
Genesis I 3.3 23:01:25 35° S 23:02:52 57° SE 23:06:50 10° NE
ASTEX 1 3.4 22:58:38 10° N 23:03:38 88° E 23:06:19 28° S
Cosmos 1356 3.4 23:05:02 51° SSE 23:05:45 70° E 23:09:18 10° NNE
SL-8 R/B 3.7 23:01:06 10° W 23:05:51 61° SSW 23:07:47 34° SE
Iridium 4 Rocket 3.8 23:01:14 10° N 23:07:10 73° E 23:10:11 30° SSE
Cosmos 1544 Rocket 4.2 23:08:19 33° ESE 23:09:11 37° E 23:13:11 10° NNE
Meteor 1-11 Rocket 3.7 23:06:22 26° S 23:09:48 77° E 23:15:32 10° NNE
Cosmos 2239 Rocket 4.5 23:06:39 26° S 23:10:27 76° E 23:16:45 10° NNE
Cosmos 2369 Rocket 2.5 23:08:53 32° SSE 23:10:56 45° ESE 23:16:16 10° NE
BREEZE-M DEB (TANK) 2.0 23:13:04 10° W 23:15:30 79° S 23:21:33 10° ESE
Gbstr 26 Del rocket 4.3 23:15:17 10° W 23:19:17 25° SW 23:19:49 24° SSW
ATLAS 2AS CENTAUR R/B 3.2 23:11:06 10° NW 23:19:18 71° NE 23:24:47 22° ESE
Cosmos 2219 4.4 23:17:59 10° NNW 23:23:09 35° NE 23:26:45 17° ESE
deb Kosmos-1763 4.1 23:21:35 10° NNW 23:25:31 80° ENE 23:26:16 55° SE
NOSS 3-1 (C) 4.5 23:19:29 10° NW 23:26:37 49° WSW 23:30:51 27° S
Meteor 1-23 Rocket 4.1 23:21:49 10° NNW 23:27:25 84° W 23:29:51 35° S
Cosmos 1633 2.5 23:27:28 59° S 23:28:07 85° E 23:31:51 10° N
Cosmos 1315 Rocket 2.8 23:28:18 55° SE 23:28:53 63° E 23:32:47 10° NNE
Lacrosse 5 rocket 1.0 23:27:52 10° WSW 23:31:43 87° NW 23:35:26 10° ENE
USA 234 3.4 23:26:21 10° ENE 23:32:39 48° SE 23:36:21 24° SSW
Cosmos 1503 Rocket 4.4 23:27:51 10° NNW 23:32:57 54° WSW 23:35:01 33° SSW
Cosmos 2084 Rocket 3.6 23:29:32 10° NW 23:33:18 48° SW 23:33:44 46° SSW
Cosmos 1943 Rocket 3.0 23:35:42 30° ESE 23:36:31 31° ESE 23:41:24 10° NE
Meteor 2-16 Rocket 4.4 23:36:36 32° S 23:39:37 86° E 23:45:46 10° N
Cosmos 968 Rocket 4.1 23:35:25 10° NNW 23:40:31 48° ENE 23:42:43 30° ESE
Cosmos 1346 Rocket 3.0 23:36:51 10° N 23:40:42 53° ENE 23:41:13 48° ESE
Okean 2 3.4 23:40:21 10° NNW 23:44:32 72° W 23:45:25 52° SSW
Cosmos 1892 Rocket 3.9 23:42:37 10° NNW 23:46:55 58° W 23:48:06 42° SSW
Cosmos 1821 Rocket 4.2 23:43:26 24° SSW 23:47:18 66° WNW 23:53:29 10° N
Cosmos 1605 Rocket 4.0 23:45:07 34° S 23:48:06 81° E 23:54:33 10° N
CZ-4C R/B 3.3 23:48:44 56° ESE 23:49:07 60° ENE 23:52:46 10° N
Terra 3.7 23:47:52 15° SW 23:50:19 22° W 23:53:59 10° NW
Meteor 1-5 Rocket 4.0 23:49:43 42° S 23:51:30 74° E 23:56:49 10° NNE
